Regional Weather Roundup
Issued by NWS

Home | Current Version | Previous Version | Graphics & Text | Print | Product List | Glossary On
Versions: 1 2 3 4 5 6 7 8 9 10 11 12 13 14 15 16 17 18 19 20 21 22 23 24 25 26 27 28 29 30 31 32 33 34 35 36 37 38 39 40 41 42 43 44 45 46 47 48 49 50
546
ASUS45 KBOI 161510
RWRID

IDAHO REGIONAL WEATHER ROUNDUP
NATIONAL WEATHER SERVICE BOISE ID
800 AM MST SAT DEC 16 2017

NOTE: "FAIR" INDICATES FEW OR NO CLOUDS BELOW 12000 FEET
WITH NO SIGNIFICANT WEATHER AND/OR OBSTRUCTIONS TO VISIBILITY

IDZ012-014-161600-
SOUTHWEST IDAHO


CITY           SKY/WX    TMP DP  RH WIND       PRES   REMARKS
BOISE          CLOUDY    23  21  92 W7        30.10R WCI  15
CALDWELL       CLOUDY    21  20  96 W5        30.15R WCI  15
MOUNTAIN HOME  MOCLDY    27  27 100 NW9       30.07S WCI  18
$$

IDZ016-017-161600-
SOUTHCENTRAL IDAHO


CITY           SKY/WX    TMP DP  RH WIND       PRES   REMARKS
BURLEY         CLOUDY    29  25  85 W14       29.98R WCI  18
JEROME         CLOUDY    25  23  92 SW20      29.98S WCI  11
TWIN FALLS       N/A    N/A N/A N/A MISG      29.99S
$$

IDZ019>023-161600-
SOUTHEAST IDAHO


CITY           SKY/WX    TMP DP  RH WIND       PRES   REMARKS
IDAHO FALLS    LGT SNOW  24  22  91 SW8       29.96R FOG     WCI  15
POCATELLO      LGT SNOW  25  23  92 SW10      29.97R FOG     WCI  15
REXBURG        LGT SNOW  24  23  96 SW5       29.93R FOG     WCI  18
$$

IDZ006-010-011-018-031-032-161600-
CENTRAL IDAHO MOUNTAINS


CITY           SKY/WX    TMP DP  RH WIND       PRES   REMARKS
MCCALL         MOCLDY    18  15  88 CALM      29.99S
HAILEY         FOG       23  21  93 SE9       29.92R VSB 1/2 WCI  13
STANLEY          N/A     23  19  85 NW3       29.91R
SALMON         CLOUDY    20  18  92 CALM      30.02R
CHALLIS        CLOUDY    18  15  88 CALM      29.95R
$$

IDZ002-004-006-007-026-161600-
NORTHERN IDAHO


CITY           SKY/WX    TMP DP  RH WIND       PRES   REMARKS
LEWISTON       FLURRIES  30  29  96 SW5       30.23S WCI  25
LOWELL           N/A     32  32 100 CALM      30.21R
COEUR D`ALENE  CLOUDY    25  24  96 SW7       30.18R WCI  17
MULLAN PASS    CLOUDY    18  13  80 NW5       29.95R HAZE    WCI  11
$$




USA.gov is the U.S. government's official web portal to all federal, state and local government web resources and services.